ASRTU-1 (AO-123)

Last updated on Tue Aug 25 2026 00:03:14 GMT+0000 (Coordinated Universal Time)

1 61781U 24199AY 26236.56307450 .00007256 00000+0 20481-3 0 9994 2 61781 97.2899 104.6238 0015236 66.5459 293.7386 15.36563616144420
UTC large
Height (km)
Speed (km/s)
/
Latitude / Longitude
Inclination (degrees)
Orbital Period (minutes)
Azimuth
Elevation
Range (km)
Doppler Factor

Next 0 passes for location: London (51.5072 / 0.1276)

No passes found over London.
ASRTU-1 (AO-123)